Location: Igri�s
(42.2144°N, 0.4320°W)
Time: 13:24:57
(UTC+00:00)

USA 267 - Pass Details

Date: 13 August 2020
Orbit: 1101 x 1106 km, 123.0° (Epoch: 22 September)

Event Time Altitude Azimuth Distance (km) Brightness Sun altitude
Rises 21:17:11 0° 47° (NE) 3,928 6.2 -21.4°
Reaches altitude 10° 21:19:40 10° 47° (NE) 2,968 5.5 -21.7°
Maximum altitude 21:26:14 83° 321° (NW) 1,118 3.3 -22.5°
Drops below altitude 10° 21:32:47 10° 234° (SW) 2,960 5.6 -23.3°
Sets 21:35:15 0° 234° (SW) 3,916 6.2 -23.6°
